Home   Weather   Stillwater   Past weeks
Flag for USA

Past Weather in Stillwater, Minnesota, USA — Yesterday and Last 2 Weeks

Now
55 °F

Overcast.


Feels Like: 54 °F
Forecast: 65 / 49 °F
Wind: 6 mph from North

Location: St. Paul Downtown Holman Field

Current Time: May 23, 2019 at 10:04:22 pm

Latest Report: May 23, 2019 at 8:53 pm


Visibility: 10 mi

Pressure: 30.09 "Hg

Humidity: 69%

Dew Point: 45 °F

Location of StillwaterLocation

Past Weather in Stillwater — Graph

°F

Stillwater Temperature Yesterday

Maximum temperature yesterday: 65 °F (at 2:53 pm)
Minimum temperature yesterday: 48 °F (at 12:53 am)
Average temperature yesterday: 55 °F

High & Low Weather Summary for the Past Weeks

 TemperatureHumidityPressure
High80 °F (May 16, 11:53 am)97% (May 15, 4:53 am)30.18 "Hg (May 15, 4:53 am)
Low35 °F (May 9, 5:53 am)23% (May 15, 4:53 pm)29.51 "Hg (May 22, 10:53 am)
Average53 °F67%29.88 "Hg
* Reported May 8 9:00 pm — May 23 8:53 pm, Stillwater. Weather by CustomWeather, © 2019

Note: Actual official high and low records may vary slightly from our data, if they occured in-between our weather recording intervals... More about our weather records

Advertising

Stillwater Weather History for the Previous 24 Hours

Scroll right to see more
 ConditionsComfort  
Time TempWeatherWind HumidityBarometerVisibility
8:53 pm
Thu, May 23
55 °FOvercast.6 mph69%30.09 "Hg10 mi
7:53 pm57 °FOvercast.7 mph67%30.12 "Hg10 mi
6:53 pm57 °FOvercast.9 mph64%30.13 "Hg10 mi
5:53 pm58 °FOvercast.12 mph65%30.10 "Hg10 mi
4:53 pm58 °FOvercast.10 mph65%30.10 "Hg10 mi
3:53 pm59 °FOvercast.8 mph60%30.09 "Hg10 mi
2:53 pm58 °FOvercast.12 mph62%30.07 "Hg10 mi
1:53 pm59 °FOvercast.10 mph62%30.04 "Hg10 mi
1:00 pm58 °FOvercast.15 mph62%30.05 "Hg10 mi
11:53 am57 °FOvercast.13 mph62%30.03 "Hg10 mi
10:53 am56 °FOvercast.16 mph65%30.00 "Hg10 mi
9:53 am54 °FOvercast.16 mph67%29.98 "Hg10 mi
8:53 am54 °FOvercast.16 mph67%29.95 "Hg10 mi
7:53 am54 °FMostly cloudy.15 mph69%29.93 "Hg10 mi
6:53 am53 °FMostly cloudy.18 mph74%29.89 "Hg10 mi
5:53 am53 °FMostly cloudy.10 mph80%29.86 "Hg10 mi
5:31 am53 °FMostly cloudy.13 mph80%29.86 "Hg10 mi
4:53 am54 °FOvercast.14 mph77%29.83 "Hg10 mi
3:53 am55 °FOvercast.12 mph74%29.81 "Hg10 mi
3:23 am55 °FMostly cloudy.14 mph74%29.81 "Hg10 mi
2:53 am55 °FOvercast.14 mph77%29.79 "Hg10 mi
2:06 am56 °FOvercast.10 mph75%29.78 "Hg10 mi
12:53 am56 °FMostly cloudy.10 mph72%29.77 "Hg10 mi
12:38 am56 °FOvercast.10 mph72%29.77 "Hg10 mi
11:53 pm
Wed, May 22
57 °FMostly cloudy.14 mph67%29.75 "Hg10 mi
10:53 pm58 °FMostly cloudy.12 mph62%29.74 "Hg10 mi
Weather by CustomWeather, © 2019

See weather overview